Location: Newark
(23.1300°N, 73.6109°E)
Time: 22:57:32
(UTC+00:00)

NOAA 18 - Pass Details

Date: 20 June 2021
Orbit: 840 x 861 km, 99.0° (Epoch: 27 July)

Event Time Altitude Azimuth Distance (km) Brightness Sun altitude
Exits shadow 17:01:39 44° 305° (NW) 1,166 6.2 -34.3°
Drops below altitude 10° 17:05:43 10° 336° (NNW) 2,490 8.4 -34.9°
Sets 17:08:09 0° 341° (NNW) 3,430 9.3 -35.2°
